Wind_Speed
39 39 39 39 39 40 41 42 43 43 42 41 41 40 39 39 39 40 41 42 41 42 42 42 42 40 39 36 35 34 32 31 31 30 30 30 30 30
40 41 41 41 41 42 42 43 44 44 44 43 43 42 41 39 39 39 42 43 43 42 42 42 42 40 38 37 35 34 32 31 30 30 29 29 29 29
39 40 42 43 44 44 44 44 45 46 46 46 45 44 43 42 41 40 41 43 44 44 43 43 42 41 39 37 36 34 33 31 30 29 28 28 28 28
38 40 41 43 45 46 47 47 47 47 47 48 48 47 45 44 43 42 42 43 44 44 44 43 41 40 39 38 36 35 33 31 30 28 27 27 26 26
38 39 40 42 44 46 47 48 49 49 49 49 50 50 48 45 44 43 42 42 43 44 44 43 42 40 39 37 36 35 33 31 30 28 27 25 24 24
39 40 41 43 44 46 47 49 50 51 51 51 52 53 52 49 48 45 45 44 43 44 44 44 42 40 39 38 37 35 33 31 29 27 26 24 23 23
40 41 43 44 46 47 49 51 52 53 53 53 53 54 54 53 51 48 47 46 46 45 45 44 42 41 40 39 37 36 33 31 29 27 25 24 23 22
39 41 43 44 46 48 50 52 54 55 55 55 56 55 56 56 54 51 49 48 48 47 47 46 44 42 40 40 38 36 34 32 30 28 26 24 23 22
39 41 43 45 47 48 50 52 55 57 58 59 58 58 58 58 56 54 50 48 48 48 48 47 46 44 42 41 39 37 35 33 31 29 26 24 23 22
40 41 43 45 47 49 50 51 54 57 59 61 61 61 61 61 59 56 53 50 50 50 50 49 48 46 44 42 41 39 37 35 32 30 28 26 24 23
39 39 40 43 46 49 50 51 53 56 59 62 64 64 64 63 62 60 57 53 51 50 50 50 49 47 46 44 42 41 39 36 34 31 29 27 25 24
36 36 38 40 43 46 49 50 52 54 58 61 65 66 67 66 65 62 59 55 51 51 51 51 50 49 47 46 44 42 40 38 36 33 31 28 26 24
32 33 34 35 37 41 45 48 50 54 58 60 64 67 68 68 67 64 61 57 52 50 51 52 51 50 49 47 46 44 42 40 38 35 32 30 27 25
29 30 30 31 33 35 38 42 47 52 56 60 62 66 68 68 68 66 63 60 55 51 50 51 51 51 51 49 48 46 45 43 40 36 33 31 28 25
27 26 26 26 26 27 30 34 40 46 52 57 60 63 67 68 68 67 65 62 58 54 51 52 52 53 53 52 50 48 46 44 42 38 35 32 29 26
24 22 21 20 19 19 23 27 33 39 46 52 57 61 64 68 68 67 66 62 59 56 51 50 51 52 53 53 51 49 47 45 43 40 37 34 31 28
21 19 18 16 14 13 15 20 25 32 40 46 52 58 62 65 67 67 66 64 61 57 54 50 50 52 52 53 52 50 48 45 43 41 38 35 32 29
19 17 16 13 9 7 9 14 19 26 33 40 47 52 56 61 65 65 64 63 61 58 55 51 50 51 52 52 52 50 48 46 44 42 39 36 33 30
16 15 13 10 6 3 5 10 16 22 29 35 41 46 50 56 61 62 62 61 59 57 56 53 49 49 49 50 49 49 48 46 44 43 41 38 35 32
14 12 10 7 4 1 5 9 13 19 25 31 36 40 45 50 55 57 59 59 57 56 56 53 49 46 46 48 48 49 49 47 45 44 42 40 36 33
12 10 8 5 2 1 5 8 12 17 23 28 31 35 39 45 50 53 56 56 55 55 53 51 49 46 46 46 47 49 50 50 48 47 44 40 36 34
10 8 6 3 0 3 5 7 12 16 21 25 28 31 35 40 46 50 53 54 54 53 50 49 48 46 45 45 45 46 47 49 49 47 44 40 37 35
9 7 5 3 2 3 5 7 10 14 18 22 27 30 33 37 42 47 49 52 53 52 50 48 47 45 44 44 44 45 45 46 46 45 43 40 38 35
Wind_Direction
261 257 253 249 246 243 240 238 236 235 233 232 230 229 228 227 227 226 225 223 223 224 225 226 227 228 229 232 234 235 236 237 238 239 240 242 242 243
260 256 252 249 246 243 240 238 236 234 233 232 232 230 228 227 226 226 225 223 222 222 223 224 225 227 229 231 233 234 235 236 237 238 239 241 242 243
261 257 253 250 247 245 241 239 236 234 232 231 231 230 228 227 226 226 225 225 223 222 222 224 225 226 228 230 231 232 233 234 235 237 239 241 242 243
263 259 254 251 248 246 243 240 237 235 232 230 230 230 228 227 226 225 223 223 223 222 222 222 224 226 228 229 229 230 231 232 233 235 237 239 241 242
265 260 256 252 249 246 244 241 238 235 232 229 229 229 228 226 225 225 223 222 222 221 220 221 223 225 226 226 226 227 228 229 230 232 234 236 239 241
267 263 258 253 249 246 244 241 239 236 233 229 228 228 227 225 225 225 224 222 221 220 220 220 221 222 223 223 223 224 224 226 227 228 229 232 235 238
270 266 261 256 252 248 245 242 239 236 234 230 228 227 226 225 225 225 224 223 221 220 219 218 218 219 219 220 221 221 222 222 222 222 225 229 232 237
273 268 264 259 254 249 245 242 239 236 234 231 228 226 226 225 224 225 225 224 224 221 219 218 217 217 217 218 218 218 218 217 218 220 224 228 232 237
277 272 267 262 257 252 247 242 239 236 233 230 227 225 225 224 225 225 223 223 222 221 219 217 216 216 216 217 216 216 215 215 216 220 224 228 233 238
280 274 270 264 259 254 249 244 240 236 232 229 227 225 223 223 223 223 222 222 220 219 218 216 216 215 215 215 215 214 214 215 217 221 225 229 233 238
284 278 273 266 260 255 250 246 240 235 232 228 225 224 222 222 222 222 221 220 219 219 218 216 215 214 214 214 214 213 214 216 218 222 226 230 233 238
288 283 277 270 263 256 250 245 239 234 231 227 224 222 221 221 221 221 220 218 218 219 218 216 214 213 213 213 213 213 214 216 219 223 226 229 232 236
293 288 283 275 267 259 252 244 237 232 228 226 223 220 219 219 219 218 219 218 217 217 216 215 213 212 212 212 213 214 215 217 220 222 225 227 230 234
298 295 289 282 272 262 252 243 235 230 226 223 221 219 217 217 217 217 217 217 215 213 213 213 212 210 210 211 212 213 215 217 220 222 224 226 229 234
306 304 298 290 279 265 251 240 232 227 223 220 218 217 216 215 215 215 215 214 214 211 211 211 210 210 210 210 211 213 214 217 219 221 223 226 230 234
315 312 309 300 288 268 249 236 230 224 219 216 214 214 214 214 213 213 212 212 212 211 210 210 209 209 210 211 212 213 214 216 218 221 223 227 230 234
322 321 318 309 297 274 248 233 225 218 213 211 211 211 212 212 211 211 211 211 211 212 212 210 209 209 210 212 212 213 214 216 218 220 223 226 230 234
327 328 330 325 309 275 241 224 213 208 206 207 207 208 209 210 209 208 209 210 209 211 212 210 208 208 210 212 213 213 214 216 218 220 223 226 230 234
327 331 336 340 329 283 231 207 199 198 201 202 203 205 206 207 207 207 207 207 207 207 210 210 207 206 210 212 213 214 215 216 218 220 223 226 230 233
323 330 338 346 349 249 195 190 189 191 192 194 198 202 204 205 205 205 205 206 205 205 207 209 208 207 210 211 212 214 214 215 217 220 223 226 230 234
317 323 335 348 14 147 178 183 184 185 187 189 194 198 201 203 203 202 202 203 203 203 205 209 211 210 209 210 212 213 214 215 217 220 223 226 229 233
317 313 317 320 250 148 156 170 179 183 185 187 189 193 196 199 200 200 201 202 202 202 204 207 209 210 210 210 211 213 215 217 218 221 224 226 229 232
308 299 286 275 215 176 168 170 171 180 185 188 188 188 191 195 196 197 199 199 200 201 201 203 206 209 210 210 209 211 214 216 218 221 223 226 229 233
Height
5724 5726 5727 5729 5732 5735 5739 5743 5747 5751 5756 5760 5763 5767 5771 5775 5779 5784 5789 5795 5800 5806 5811 5817 5823 5828 5833 5838 5843 5847 5851 5854 5858 5861 5865 5867 5870 5873
5712 5713 5715 5717 5719 5723 5727 5731 5735 5740 5745 5750 5753 5757 5762 5766 5771 5775 5780 5786 5792 5797 5803 5809 5814 5820 5826 5831 5835 5840 5844 5848 5852 5855 5858 5861 5864 5867
5698 5700 5702 5704 5707 5710 5714 5718 5723 5728 5734 5739 5743 5747 5752 5757 5762 5766 5771 5777 5782 5788 5794 5800 5806 5812 5818 5823 5828 5833 5838 5842 5845 5849 5852 5855 5858 5861
5686 5687 5689 5691 5694 5697 5701 5705 5710 5715 5722 5727 5732 5737 5742 5747 5752 5757 5762 5768 5773 5779 5785 5791 5798 5804 5810 5816 5821 5827 5831 5835 5839 5843 5846 5849 5852 5855
5673 5674 5675 5677 5680 5683 5687 5691 5697 5702 5708 5715 5720 5725 5731 5737 5743 5748 5753 5758 5764 5770 5776 5783 5790 5796 5802 5809 5814 5820 5824 5829 5833 5837 5840 5844 5847 5850
5659 5660 5661 5663 5666 5669 5672 5677 5682 5688 5694 5701 5708 5713 5720 5727 5733 5739 5744 5749 5755 5762 5768 5774 5781 5788 5795 5801 5807 5812 5818 5823 5827 5831 5835 5838 5842 5845
5645 5645 5646 5647 5650 5653 5657 5661 5666 5673 5679 5687 5694 5701 5708 5715 5722 5729 5735 5740 5746 5752 5759 5766 5773 5780 5787 5794 5800 5806 5812 5817 5821 5826 5830 5833 5837 5840
5631 5630 5630 5631 5633 5636 5640 5644 5650 5656 5664 5671 5680 5688 5695 5703 5710 5717 5724 5731 5738 5745 5750 5757 5765 5772 5779 5787 5793 5799 5805 5811 5816 5820 5824 5828 5832 5835
5616 5614 5613 5614 5615 5618 5622 5627 5632 5639 5647 5655 5664 5673 5681 5690 5698 5706 5713 5720 5728 5734 5741 5748 5756 5764 5772 5779 5786 5792 5799 5804 5810 5815 5819 5823 5826 5830
5600 5598 5597 5596 5597 5599 5603 5608 5614 5621 5629 5638 5649 5658 5665 5674 5684 5693 5701 5709 5717 5724 5731 5740 5748 5756 5764 5771 5779 5786 5792 5798 5804 5809 5814 5818 5821 5824
5583 5581 5579 5579 5578 5579 5584 5589 5595 5602 5609 5618 5629 5639 5649 5659 5670 5679 5689 5697 5705 5714 5723 5731 5740 5748 5756 5763 5771 5779 5786 5792 5798 5803 5808 5812 5816 5819
5569 5565 5563 5561 5560 5560 5564 5569 5576 5583 5590 5599 5609 5621 5633 5644 5655 5667 5677 5686 5695 5704 5714 5722 5731 5739 5748 5756 5764 5772 5779 5785 5791 5797 5802 5807 5810 5814
5556 5551 5548 5545 5543 5542 5544 5550 5556 5562 5570 5580 5591 5603 5615 5628 5641 5654 5665 5676 5685 5695 5705 5713 5721 5731 5740 5748 5756 5764 5772 5778 5785 5791 5796 5801 5805 5808
5544 5539 5534 5530 5527 5526 5527 5531 5536 5543 5553 5563 5575 5588 5601 5615 5629 5641 5653 5664 5675 5685 5694 5703 5712 5721 5730 5739 5748 5756 5764 5771 5778 5784 5790 5795 5799 5802
5534 5528 5523 5518 5514 5512 5513 5516 5520 5527 5537 5549 5562 5575 5588 5601 5614 5627 5640 5652 5663 5673 5683 5693 5702 5711 5721 5730 5739 5748 5756 5764 5771 5778 5783 5788 5792 5796
5526 5520 5514 5509 5505 5503 5503 5505 5510 5516 5525 5536 5548 5560 5572 5586 5600 5614 5628 5641 5653 5664 5674 5683 5693 5703 5713 5722 5732 5740 5749 5757 5764 5771 5777 5782 5786 5790
5520 5514 5509 5504 5500 5497 5497 5499 5502 5507 5516 5526 5537 5549 5561 5575 5589 5603 5617 5631 5643 5655 5665 5675 5684 5694 5704 5714 5724 5733 5741 5750 5757 5764 5770 5775 5779 5783
5516 5511 5506 5502 5498 5496 5495 5496 5499 5504 5511 5520 5530 5541 5553 5566 5580 5594 5607 5621 5634 5646 5657 5668 5677 5687 5697 5706 5716 5725 5734 5742 5749 5756 5762 5768 5772 5776
5514 5510 5505 5501 5498 5496 5496 5496 5499 5503 5509 5517 5526 5537 5547 5559 5572 5585 5599 5613 5626 5638 5649 5660 5670 5680 5690 5700 5709 5718 5726 5734 5741 5748 5754 5760 5765 5770
5513 5509 5505 5502 5500 5498 5498 5499 5501 5504 5510 5516 5525 5533 5543 5554 5566 5579 5593 5606 5619 5631 5642 5653 5664 5674 5683 5692 5701 5709 5717 5725 5733 5739 5745 5751 5757 5763
5511 5509 5506 5504 5502 5501 5501 5502 5504 5506 5511 5517 5524 5532 5541 5551 5562 5575 5587 5600 5612 5625 5637 5647 5657 5667 5675 5683 5691 5699 5708 5716 5723 5730 5737 5744 5750 5755
5510 5508 5507 5505 5504 5504 5504 5504 5506 5509 5513 5518 5524 5531 5539 5549 5559 5571 5583 5595 5608 5620 5630 5640 5650 5659 5668 5677 5685 5692 5700 5708 5715 5723 5731 5738 5743 5747
5509 5508 5507 5506 5505 5506 5506 5507 5509 5511 5515 5519 5525 5531 5538 5547 5557 5568 5578 5590 5602 5613 5624 5634 5643 5653 5661 5670 5678 5685 5693 5700 5708 5716 5723 5729 5734 5740